Time,TemperatureF,DewpointF,PressureIn,WindDirection,WindDirectionDegrees,WindSpeedMPH,WindSpeedGustMPH,Humidity,HourlyPrecipIn,Conditions,Clouds,dailyrainin,SoftwareType,DateUTC
2013-07-23 00:04:00,65.3,56.0,29.82,North,0,0.0,0.0,72,0.00,,,0.00,VWS V14.01,2013-07-23 05:04:00,
2013-07-23 00:09:00,64.8,55.9,29.82,North,0,0.0,0.0,73,0.00,,,0.00,VWS V14.01,2013-07-23 05:09:00,
2013-07-23 00:14:00,64.0,55.6,29.82,North,0,0.0,0.0,74,0.00,,,0.00,VWS V14.01,2013-07-23 05:14:00,
2013-07-23 00:19:00,63.5,56.2,29.82,North,0,0.0,0.0,77,0.00,,,0.00,VWS V14.01,2013-07-23 05:19:00,
2013-07-23 00:24:00,63.1,56.2,29.82,North,0,0.0,0.0,78,0.00,,,0.00,VWS V14.01,2013-07-23 05:24:00,
2013-07-23 00:29:00,63.0,56.3,29.82,North,0,0.0,0.0,79,0.00,,,0.00,VWS V14.01,2013-07-23 05:29:00,
2013-07-23 00:35:00,62.6,56.0,29.85,North,0,0.0,0.0,79,0.00,,,0.00,VWS V14.01,2013-07-23 05:35:00,
2013-07-23 00:40:00,62.2,56.3,29.85,North,0,0.0,0.0,81,0.00,,,0.00,VWS V14.01,2013-07-23 05:40:00,
2013-07-23 00:45:00,62.1,56.5,29.85,North,0,0.0,0.0,82,0.00,,,0.00,VWS V14.01,2013-07-23 05:45:00,
2013-07-23 00:50:00,61.7,56.5,29.85,North,0,0.0,0.0,83,0.00,,,0.00,VWS V14.01,2013-07-23 05:50:00,
2013-07-23 00:55:00,61.3,56.5,29.85,North,0,0.0,0.0,84,0.00,,,0.00,VWS V14.01,2013-07-23 05:55:00,
2013-07-23 01:00:00,61.0,56.5,29.85,North,0,0.0,0.0,85,0.00,,,0.00,VWS V14.01,2013-07-23 06:00:00,
2013-07-23 01:05:00,60.6,56.7,29.88,WNW,292,0.0,0.0,87,0.00,,,0.00,VWS V14.01,2013-07-23 06:05:00,
2013-07-23 01:10:00,60.4,56.6,29.88,WNW,292,0.0,0.0,87,0.00,,,0.00,VWS V14.01,2013-07-23 06:10:00,
2013-07-23 01:15:00,60.4,56.9,29.88,WNW,292,0.0,0.0,88,0.00,,,0.00,VWS V14.01,2013-07-23 06:15:00,
2013-07-23 01:21:00,60.3,56.7,29.88,WNW,292,0.0,0.0,88,0.00,,,0.00,VWS V14.01,2013-07-23 06:21:00,
2013-07-23 01:26:00,60.1,56.5,29.88,WNW,292,0.0,0.0,88,0.00,,,0.00,VWS V14.01,2013-07-23 06:26:00,
2013-07-23 01:31:00,59.7,56.5,29.88,WNW,292,0.0,0.0,89,0.00,,,0.00,VWS V14.01,2013-07-23 06:31:00,
2013-07-23 01:36:00,59.4,56.1,29.88,WNW,292,0.0,0.0,89,0.00,,,0.00,VWS V14.01,2013-07-23 06:36:00,
2013-07-23 01:41:00,59.2,56.2,29.88,WNW,292,0.0,0.0,90,0.00,,,0.00,VWS V14.01,2013-07-23 06:41:00,
2013-07-23 01:46:00,58.8,56.2,29.88,WNW,292,0.0,0.0,91,0.00,,,0.00,VWS V14.01,2013-07-23 06:46:00,
2013-07-23 01:51:00,58.5,55.8,29.88,WNW,292,0.0,0.0,91,0.00,,,0.00,VWS V14.01,2013-07-23 06:51:00,
2013-07-23 01:56:00,58.5,56.2,29.88,WNW,292,0.0,1.1,92,0.00,,,0.00,VWS V14.01,2013-07-23 06:56:00,
2013-07-23 02:01:00,58.3,56.0,29.88,WNW,292,0.0,0.0,92,0.00,,,0.00,VWS V14.01,2013-07-23 07:01:00,
2013-07-23 02:06:00,58.1,55.8,29.88,NE,45,0.0,0.0,92,0.00,,,0.00,VWS V14.01,2013-07-23 07:06:00,
2013-07-23 02:11:00,58.1,56.1,29.88,NE,45,0.0,0.0,93,0.00,,,0.00,VWS V14.01,2013-07-23 07:11:00,
2013-07-23 02:17:00,58.1,56.1,29.88,NE,45,0.0,0.0,93,0.00,,,0.00,VWS V14.01,2013-07-23 07:17:00,
2013-07-23 02:22:00,57.9,55.9,29.88,NE,45,1.6,1.6,93,0.00,,,0.00,VWS V14.01,2013-07-23 07:22:00,
2013-07-23 02:27:00,57.7,55.7,29.88,NE,45,0.0,0.0,93,0.00,,,0.00,VWS V14.01,2013-07-23 07:27:00,
2013-07-23 02:32:00,57.6,55.6,29.88,NE,45,0.0,0.0,93,0.00,,,0.00,VWS V14.01,2013-07-23 07:32:00,
2013-07-23 02:37:00,57.4,55.4,29.88,NE,45,0.0,0.0,93,0.00,,,0.00,VWS V14.01,2013-07-23 07:37:00,
2013-07-23 02:42:00,57.0,55.3,29.88,NE,45,0.0,0.0,94,0.00,,,0.00,VWS V14.01,2013-07-23 07:42:00,
2013-07-23 02:47:00,56.8,55.1,29.88,NE,45,0.0,0.0,94,0.00,,,0.00,VWS V14.01,2013-07-23 07:47:00,
2013-07-23 02:52:00,56.7,55.0,29.88,NE,45,0.0,0.0,94,0.00,,,0.00,VWS V14.01,2013-07-23 07:52:00,
2013-07-23 02:57:00,56.5,54.8,29.88,NE,45,0.0,0.0,94,0.00,,,0.00,VWS V14.01,2013-07-23 07:57:00,
2013-07-23 03:02:00,56.5,54.8,29.88,NE,45,0.0,0.0,94,0.00,,,0.00,VWS V14.01,2013-07-23 08:02:00,
2013-07-23 03:08:00,56.3,54.9,29.88,NE,45,0.0,0.0,95,0.00,,,0.00,VWS V14.01,2013-07-23 08:08:00,
2013-07-23 03:13:00,56.3,54.9,29.88,NE,45,0.0,0.0,95,0.00,,,0.00,VWS V14.01,2013-07-23 08:13:00,
2013-07-23 03:18:00,56.1,55.0,29.88,NE,45,0.0,0.0,96,0.00,,,0.00,VWS V14.01,2013-07-23 08:18:00,
2013-07-23 03:23:00,56.1,54.7,29.88,NE,45,0.0,0.0,95,0.00,,,0.00,VWS V14.01,2013-07-23 08:23:00,
2013-07-23 03:28:00,55.9,54.8,29.88,NE,45,0.0,0.0,96,0.00,,,0.00,VWS V14.01,2013-07-23 08:28:00,
2013-07-23 03:33:00,55.9,54.8,29.88,SSE,158,0.0,0.0,96,0.00,,,0.00,VWS V14.01,2013-07-23 08:33:00,
2013-07-23 03:38:00,55.8,54.6,29.88,SSE,158,0.0,0.0,96,0.00,,,0.00,VWS V14.01,2013-07-23 08:38:00,
2013-07-23 03:43:00,55.8,54.6,29.88,SSE,158,0.0,0.0,96,0.00,,,0.00,VWS V14.01,2013-07-23 08:43:00,
2013-07-23 03:48:00,55.8,54.9,29.88,SSE,158,0.0,0.0,97,0.00,,,0.00,VWS V14.01,2013-07-23 08:48:00,
2013-07-23 03:53:00,55.6,54.8,29.88,SSE,158,0.0,0.0,97,0.00,,,0.00,VWS V14.01,2013-07-23 08:53:00,
2013-07-23 03:58:00,55.4,54.3,29.88,SSE,158,0.0,0.0,96,0.00,,,0.00,VWS V14.01,2013-07-23 08:58:00,
2013-07-23 04:03:00,55.2,54.4,29.88,SSE,158,0.0,0.0,97,0.00,,,0.00,VWS V14.01,2013-07-23 09:03:00,
2013-07-23 04:08:00,55.2,54.4,29.88,SSE,158,0.0,0.0,97,0.00,,,0.00,VWS V14.01,2013-07-23 09:08:00,
2013-07-23 04:14:00,55.0,54.2,29.88,SSE,158,0.0,0.0,97,0.00,,,0.00,VWS V14.01,2013-07-23 09:14:00,
2013-07-23 04:19:00,54.9,54.3,29.88,SSE,158,0.0,0.0,98,0.00,,,0.00,VWS V14.01,2013-07-23 09:19:00,
2013-07-23 04:24:00,54.9,54.0,29.88,SSE,158,0.0,0.0,97,0.00,,,0.00,VWS V14.01,2013-07-23 09:24:00,
2013-07-23 04:29:00,54.7,53.8,29.88,SSE,158,0.0,0.0,97,0.00,,,0.00,VWS V14.01,2013-07-23 09:29:00,
2013-07-23 04:34:00,54.5,54.0,29.85,SSE,158,0.0,0.0,98,0.00,,,0.00,VWS V14.01,2013-07-23 09:34:00,
2013-07-23 04:39:00,54.5,54.0,29.85,SSE,158,0.0,0.0,98,0.00,,,0.00,VWS V14.01,2013-07-23 09:39:00,
2013-07-23 04:44:00,54.5,54.0,29.85,SSE,158,0.0,0.0,98,0.00,,,0.00,VWS V14.01,2013-07-23 09:44:00,
2013-07-23 04:49:00,54.5,54.0,29.88,NE,45,0.0,0.9,98,0.00,,,0.00,VWS V14.01,2013-07-23 09:49:00,
2013-07-23 04:54:00,54.7,54.1,29.88,NE,45,0.0,0.9,98,0.00,,,0.00,VWS V14.01,2013-07-23 09:54:00,
2013-07-23 04:59:00,54.7,54.1,29.88,NE,45,0.0,0.0,98,0.00,,,0.00,VWS V14.01,2013-07-23 09:59:00,
2013-07-23 05:04:00,54.7,54.1,29.88,NE,45,0.0,0.0,98,0.00,,,0.00,VWS V14.01,2013-07-23 10:04:00,
2013-07-23 05:09:00,54.5,54.0,29.88,NE,45,0.0,1.1,98,0.00,,,0.00,VWS V14.01,2013-07-23 10:09:00,
2013-07-23 05:14:00,54.7,54.1,29.88,NE,45,0.0,0.0,98,0.00,,,0.00,VWS V14.01,2013-07-23 10:14:00,
2013-07-23 05:20:00,54.7,54.1,29.88,NE,45,0.0,0.0,98,0.00,,,0.00,VWS V14.01,2013-07-23 10:20:00,
2013-07-23 05:25:00,55.0,54.5,29.88,SSW,202,1.3,1.6,98,0.00,,,0.00,VWS V14.01,2013-07-23 10:25:00,
2013-07-23 05:30:00,55.4,54.8,29.88,WNW,292,0.0,0.0,98,0.00,,,0.00,VWS V14.01,2013-07-23 10:30:00,
2013-07-23 05:35:00,55.6,55.0,29.91,NNE,22,0.9,2.5,98,0.00,,,0.00,VWS V14.01,2013-07-23 10:35:00,
2013-07-23 05:40:00,55.9,55.4,29.91,NNE,22,0.0,0.0,98,0.00,,,0.00,VWS V14.01,2013-07-23 10:40:00,
2013-07-23 05:45:00,55.9,55.4,29.91,South,180,0.0,0.0,98,0.00,,,0.00,VWS V14.01,2013-07-23 10:45:00,
2013-07-23 05:50:00,55.9,55.4,29.91,WNW,292,0.0,0.0,98,0.00,,,0.00,VWS V14.01,2013-07-23 10:50:00,
2013-07-23 05:55:00,56.1,55.3,29.91,NW,315,0.0,0.0,97,0.00,,,0.00,VWS V14.01,2013-07-23 10:55:00,
2013-07-23 06:00:00,56.1,55.3,29.91,SSE,158,0.0,1.3,97,0.00,,,0.00,VWS V14.01,2013-07-23 11:00:00,
2013-07-23 06:05:00,56.3,55.5,29.91,NE,45,0.0,0.0,97,0.00,,,0.00,VWS V14.01,2013-07-23 11:05:00,
2013-07-23 06:10:00,56.5,55.6,29.91,SE,135,0.0,0.0,97,0.00,,,0.00,VWS V14.01,2013-07-23 11:10:00,
2013-07-23 06:15:00,56.5,55.6,29.91,NNE,22,0.0,0.0,97,0.00,,,0.00,VWS V14.01,2013-07-23 11:15:00,
2013-07-23 06:20:00,56.5,55.4,29.91,NNE,22,0.0,0.0,96,0.00,,,0.00,VWS V14.01,2013-07-23 11:20:00,
2013-07-23 06:26:00,56.5,55.4,29.91,ESE,112,0.9,0.9,96,0.00,,,0.00,VWS V14.01,2013-07-23 11:26:00,
2013-07-23 06:31:00,56.8,55.7,29.91,SE,135,0.0,3.1,96,0.00,,,0.00,VWS V14.01,2013-07-23 11:31:00,
2013-07-23 06:36:00,57.0,55.9,29.91,NE,45,2.2,2.2,96,0.00,,,0.00,VWS V14.01,2013-07-23 11:36:00,
2013-07-23 06:41:00,57.4,56.0,29.91,SW,225,1.6,2.5,95,0.00,,,0.00,VWS V14.01,2013-07-23 11:41:00,
2013-07-23 06:46:00,57.6,56.1,29.91,SSW,202,0.0,4.3,95,0.00,,,0.00,VWS V14.01,2013-07-23 11:46:00,
2013-07-23 06:51:00,58.5,56.7,29.94,North,0,1.3,3.8,94,0.00,,,0.00,VWS V14.01,2013-07-23 11:51:00,
2013-07-23 06:56:00,59.2,56.9,29.94,NNW,338,3.1,3.1,92,0.00,,,0.00,VWS V14.01,2013-07-23 11:56:00,
2013-07-23 07:01:00,59.9,57.3,29.94,NE,45,0.0,1.6,91,0.00,,,0.00,VWS V14.01,2013-07-23 12:01:00,
2013-07-23 07:06:00,60.4,57.5,29.94,NNW,338,0.0,3.4,90,0.00,,,0.00,VWS V14.01,2013-07-23 12:06:00,
2013-07-23 07:11:00,60.8,57.2,29.94,SW,225,1.1,3.8,88,0.00,,,0.00,VWS V14.01,2013-07-23 12:11:00,
2013-07-23 07:16:00,61.3,57.1,29.94,East,90,1.6,4.7,86,0.00,,,0.00,VWS V14.01,2013-07-23 12:16:00,
2013-07-23 07:22:00,61.5,56.7,29.94,NNW,338,1.1,4.5,84,0.00,,,0.00,VWS V14.01,2013-07-23 12:22:00,
2013-07-23 07:27:00,61.9,56.7,29.94,NNE,22,1.1,4.3,83,0.00,,,0.00,VWS V14.01,2013-07-23 12:27:00,
2013-07-23 07:32:00,62.4,56.9,29.94,WNW,292,2.7,4.0,82,0.00,,,0.00,VWS V14.01,2013-07-23 12:32:00,
2013-07-23 07:37:00,62.8,56.2,29.94,ENE,68,2.7,5.8,79,0.00,,,0.00,VWS V14.01,2013-07-23 12:37:00,
2013-07-23 07:42:00,63.0,55.7,29.94,ENE,68,1.6,5.4,77,0.00,,,0.00,VWS V14.01,2013-07-23 12:42:00,
2013-07-23 07:47:00,63.0,55.3,29.91,NE,45,2.9,7.6,76,0.00,,,0.00,VWS V14.01,2013-07-23 12:47:00,
2013-07-23 07:52:00,63.3,55.3,29.91,East,90,3.1,3.8,75,0.00,,,0.00,VWS V14.01,2013-07-23 12:52:00,
2013-07-23 07:57:00,63.7,56.0,29.91,WNW,292,2.9,4.0,76,0.00,,,0.00,VWS V14.01,2013-07-23 12:57:00,
2013-07-23 08:02:00,63.7,54.9,29.91,NNW,338,3.8,5.6,73,0.00,,,0.00,VWS V14.01,2013-07-23 13:02:00,
2013-07-23 08:07:00,63.9,54.7,29.91,SW,225,3.1,5.8,72,0.00,,,0.00,VWS V14.01,2013-07-23 13:07:00,
2013-07-23 08:12:00,64.0,54.1,29.91,WSW,248,4.3,6.0,70,0.00,,,0.00,VWS V14.01,2013-07-23 13:12:00,
2013-07-23 08:17:00,64.2,54.6,29.94,ESE,112,0.0,6.0,71,0.00,,,0.00,VWS V14.01,2013-07-23 13:17:00,
2013-07-23 08:22:00,64.6,54.2,29.94,NW,315,3.4,7.4,69,0.00,,,0.00,VWS V14.01,2013-07-23 13:22:00,
2013-07-23 08:27:00,64.9,54.5,29.94,ENE,68,2.9,4.0,69,0.00,,,0.00,VWS V14.01,2013-07-23 13:27:00,
2013-07-23 08:32:00,65.1,54.3,29.97,East,90,6.0,7.4,68,0.00,,,0.00,VWS V14.01,2013-07-23 13:32:00,
2013-07-23 08:38:00,65.1,54.3,29.97,North,0,3.1,6.3,68,0.00,,,0.00,VWS V14.01,2013-07-23 13:38:00,
2013-07-23 08:43:00,65.1,53.9,29.97,SSE,158,1.6,6.0,67,0.00,,,0.00,VWS V14.01,2013-07-23 13:43:00,
2013-07-23 08:48:00,65.1,53.5,29.97,NE,45,4.9,6.0,66,0.00,,,0.00,VWS V14.01,2013-07-23 13:48:00,
2013-07-23 08:53:00,65.7,54.4,29.97,ENE,68,8.1,8.1,67,0.00,,,0.00,VWS V14.01,2013-07-23 13:53:00,
2013-07-23 08:58:00,66.0,54.3,29.97,North,0,4.3,6.5,66,0.00,,,0.00,VWS V14.01,2013-07-23 13:58:00,
2013-07-23 09:03:00,66.2,54.1,29.97,ESE,112,2.9,7.2,65,0.00,,,0.00,VWS V14.01,2013-07-23 14:03:00,
2013-07-23 09:08:00,66.4,53.4,29.97,NE,45,2.9,7.2,63,0.00,,,0.00,VWS V14.01,2013-07-23 14:08:00,
2013-07-23 09:13:00,66.6,53.6,29.97,SSW,202,6.0,6.0,63,0.00,,,0.00,VWS V14.01,2013-07-23 14:13:00,
2013-07-23 09:18:00,67.3,55.1,29.97,NW,315,1.3,4.0,65,0.00,,,0.00,VWS V14.01,2013-07-23 14:18:00,
2013-07-23 09:23:00,67.5,54.0,29.97,SW,225,1.3,7.4,62,0.00,,,0.00,VWS V14.01,2013-07-23 14:23:00,
2013-07-23 09:28:00,67.5,52.7,29.97,SW,225,2.0,6.0,59,0.00,,,0.00,VWS V14.01,2013-07-23 14:28:00,
2013-07-23 09:33:00,67.6,53.3,30.00,East,90,3.4,8.7,60,0.00,,,0.00,VWS V14.01,2013-07-23 14:33:00,
2013-07-23 09:39:00,67.1,51.8,30.00,NW,315,5.4,7.2,58,0.00,,,0.00,VWS V14.01,2013-07-23 14:39:00,
2013-07-23 09:44:00,67.6,53.3,30.00,East,90,1.6,6.3,60,0.00,,,0.00,VWS V14.01,2013-07-23 14:44:00,
2013-07-23 09:49:00,67.8,53.0,29.97,NNW,338,3.6,3.6,59,0.00,,,0.00,VWS V14.01,2013-07-23 14:49:00,
2013-07-23 09:54:00,67.3,51.5,29.97,WNW,292,3.6,7.6,57,0.00,,,0.00,VWS V14.01,2013-07-23 14:54:00,
2013-07-23 09:59:00,67.5,52.2,29.97,SW,225,2.7,7.6,58,0.00,,,0.00,VWS V14.01,2013-07-23 14:59:00,
2013-07-23 10:04:00,67.3,52.5,29.97,WNW,292,2.7,2.7,59,0.00,,,0.00,VWS V14.01,2013-07-23 15:04:00,
2013-07-23 10:09:00,66.4,52.5,29.97,ESE,112,1.6,2.2,61,0.00,,,0.00,VWS V14.01,2013-07-23 15:09:00,
2013-07-23 10:14:00,66.4,53.0,29.97,WSW,248,3.6,3.6,62,0.00,,,0.00,VWS V14.01,2013-07-23 15:14:00,
2013-07-23 10:19:00,66.0,53.1,30.00,ENE,68,2.5,2.7,63,0.00,,,0.00,VWS V14.01,2013-07-23 15:19:00,
2013-07-23 10:24:00,65.7,52.7,30.00,NNE,22,2.9,5.8,63,0.00,,,0.00,VWS V14.01,2013-07-23 15:24:00,
2013-07-23 10:29:00,66.2,52.8,30.00,ENE,68,7.2,7.2,62,0.00,,,0.00,VWS V14.01,2013-07-23 15:29:00,
2013-07-23 10:34:00,66.7,53.8,30.00,NW,315,4.3,4.3,63,0.00,,,0.00,VWS V14.01,2013-07-23 15:34:00,
2013-07-23 10:39:00,66.0,52.2,30.00,North,0,6.0,8.5,61,0.00,,,0.00,VWS V14.01,2013-07-23 15:39:00,
2013-07-23 10:45:00,65.5,52.6,30.00,ENE,68,0.0,3.1,63,0.00,,,0.00,VWS V14.01,2013-07-23 15:45:00,
2013-07-23 10:50:00,65.5,52.6,30.03,NNW,338,3.4,3.6,63,0.00,,,0.00,VWS V14.01,2013-07-23 15:50:00,
2013-07-23 10:55:00,65.5,53.0,30.03,NNE,22,3.4,3.4,64,0.00,,,0.00,VWS V14.01,2013-07-23 15:55:00,
2013-07-23 11:00:00,66.0,53.9,30.03,NNW,338,2.9,2.9,65,0.00,,,0.00,VWS V14.01,2013-07-23 16:00:00,
2013-07-23 11:05:00,66.6,53.2,29.97,ENE,68,3.6,5.8,62,0.00,,,0.00,VWS V14.01,2013-07-23 16:05:00,
2013-07-23 11:10:00,66.7,52.9,29.97,NE,45,5.6,5.6,61,0.00,,,0.00,VWS V14.01,2013-07-23 16:10:00,
2013-07-23 11:15:00,67.3,53.4,29.97,WSW,248,2.0,5.6,61,0.00,,,0.00,VWS V14.01,2013-07-23 16:15:00,
2013-07-23 11:20:00,67.6,52.3,30.00,NE,45,4.0,5.8,58,0.00,,,0.00,VWS V14.01,2013-07-23 16:20:00,
2013-07-23 11:25:00,67.5,52.2,30.00,SE,135,2.7,3.8,58,0.00,,,0.00,VWS V14.01,2013-07-23 16:25:00,
2013-07-23 11:30:00,67.3,51.5,30.00,NE,45,3.4,5.8,57,0.00,,,0.00,VWS V14.01,2013-07-23 16:30:00,
2013-07-23 11:35:00,66.9,51.2,30.03,NE,45,6.0,7.8,57,0.00,,,0.00,VWS V14.01,2013-07-23 16:35:00,
2013-07-23 11:40:00,67.3,51.5,30.03,North,0,3.6,4.9,57,0.00,,,0.00,VWS V14.01,2013-07-23 16:40:00,
2013-07-23 11:46:00,67.8,51.1,30.03,ENE,68,4.0,7.6,55,0.00,,,0.00,VWS V14.01,2013-07-23 16:46:00,
2013-07-23 11:51:00,67.5,51.2,30.00,ESE,112,4.3,5.8,56,0.00,,,0.00,VWS V14.01,2013-07-23 16:51:00,
2013-07-23 11:56:00,67.8,50.6,30.00,WNW,292,4.9,6.5,54,0.00,,,0.00,VWS V14.01,2013-07-23 16:56:00,
2013-07-23 12:01:00,67.5,50.8,30.00,SSW,202,3.8,4.0,55,0.00,,,0.00,VWS V14.01,2013-07-23 17:01:00,
2013-07-23 12:06:00,67.6,51.4,30.00,NE,45,3.4,3.8,56,0.00,,,0.00,VWS V14.01,2013-07-23 17:06:00,
2013-07-23 12:11:00,68.0,50.8,30.00,SE,135,2.2,7.6,54,0.00,,,0.00,VWS V14.01,2013-07-23 17:11:00,
2013-07-23 12:16:00,68.0,50.2,30.00,East,90,1.1,6.0,53,0.00,,,0.00,VWS V14.01,2013-07-23 17:16:00,
2013-07-23 12:21:00,68.0,50.8,30.00,NE,45,3.8,3.8,54,0.00,,,0.00,VWS V14.01,2013-07-23 17:21:00,
2013-07-23 12:26:00,68.5,51.2,30.00,NE,45,3.4,4.5,54,0.00,,,0.00,VWS V14.01,2013-07-23 17:26:00,
2013-07-23 12:31:00,68.0,50.2,30.00,ESE,112,2.7,3.4,53,0.00,,,0.00,VWS V14.01,2013-07-23 17:31:00,
2013-07-23 12:36:00,68.4,51.1,30.00,West,270,4.0,4.0,54,0.00,,,0.00,VWS V14.01,2013-07-23 17:36:00,
2013-07-23 12:41:00,68.2,50.9,30.00,ENE,68,2.9,4.7,54,0.00,,,0.00,VWS V14.01,2013-07-23 17:41:00,
2013-07-23 12:46:00,68.7,50.9,30.00,SE,135,2.5,2.7,53,0.00,,,0.00,VWS V14.01,2013-07-23 17:46:00,
2013-07-23 12:52:00,69.4,52.1,30.00,ENE,68,3.8,3.8,54,0.00,,,0.00,VWS V14.01,2013-07-23 17:52:00,
2013-07-23 12:57:00,69.6,51.2,30.00,NNE,22,3.6,6.3,52,0.00,,,0.00,VWS V14.01,2013-07-23 17:57:00,
2013-07-23 13:02:00,70.0,51.0,30.00,WNW,292,3.1,6.3,51,0.00,,,0.00,VWS V14.01,2013-07-23 18:02:00,
2013-07-23 13:07:00,70.2,51.2,30.00,NW,315,2.7,6.3,51,0.00,,,0.00,VWS V14.01,2013-07-23 18:07:00,
2013-07-23 13:12:00,70.2,50.7,30.00,NE,45,6.0,6.3,50,0.00,,,0.00,VWS V14.01,2013-07-23 18:12:00,
2013-07-23 13:18:00,70.7,51.7,30.00,NE,45,2.5,3.8,51,0.00,,,0.00,VWS V14.01,2013-07-23 18:18:00,
2013-07-23 13:23:00,71.2,51.1,30.00,SW,225,6.0,6.5,49,0.00,,,0.00,VWS V14.01,2013-07-23 18:23:00,
2013-07-23 13:28:00,71.2,51.1,30.00,North,0,3.8,12.3,49,0.00,,,0.00,VWS V14.01,2013-07-23 18:28:00,
2013-07-23 13:33:00,71.1,51.0,30.00,ESE,112,2.5,6.0,49,0.00,,,0.00,VWS V14.01,2013-07-23 18:33:00,
2013-07-23 13:38:00,71.4,51.3,30.00,ENE,68,6.0,6.0,49,0.00,,,0.00,VWS V14.01,2013-07-23 18:38:00,
2013-07-23 13:43:00,71.6,51.5,30.00,NE,45,2.5,7.2,49,0.00,,,0.00,VWS V14.01,2013-07-23 18:43:00,
2013-07-23 13:48:00,72.3,51.5,30.00,NE,45,4.3,7.6,48,0.00,,,0.00,VWS V14.01,2013-07-23 18:48:00,
2013-07-23 13:54:00,72.1,51.4,30.00,WNW,292,6.5,6.5,48,0.00,,,0.00,VWS V14.01,2013-07-23 18:54:00,
2013-07-23 13:59:00,72.3,51.0,30.00,ESE,112,3.1,9.8,47,0.00,,,0.00,VWS V14.01,2013-07-23 18:59:00,
2013-07-23 14:04:00,72.1,50.8,30.00,ENE,68,3.6,6.9,47,0.00,,,0.00,VWS V14.01,2013-07-23 19:04:00,
2013-07-23 14:09:00,72.0,51.2,30.00,ENE,68,1.1,5.4,48,0.00,,,0.00,VWS V14.01,2013-07-23 19:09:00,
2013-07-23 14:14:00,71.8,51.1,30.00,NNE,22,3.1,6.3,48,0.00,,,0.00,VWS V14.01,2013-07-23 19:14:00,
2013-07-23 14:19:00,72.3,51.5,30.00,NE,45,5.8,6.0,48,0.00,,,0.00,VWS V14.01,2013-07-23 19:19:00,
2013-07-23 14:24:00,72.3,51.0,30.00,ESE,112,4.9,5.8,47,0.00,,,0.00,VWS V14.01,2013-07-23 19:24:00,
2013-07-23 14:29:00,72.5,50.6,30.00,East,90,4.0,5.8,46,0.00,,,0.00,VWS V14.01,2013-07-23 19:29:00,
2013-07-23 14:34:00,72.9,50.9,30.00,ENE,68,1.1,3.1,46,0.00,,,0.00,VWS V14.01,2013-07-23 19:34:00,
2013-07-23 14:40:00,73.0,51.1,30.00,ESE,112,2.9,3.8,46,0.00,,,0.00,VWS V14.01,2013-07-23 19:40:00,
2013-07-23 14:45:00,73.0,51.6,30.00,North,0,2.5,3.6,47,0.00,,,0.00,VWS V14.01,2013-07-23 19:45:00,
2013-07-23 14:51:00,72.1,50.8,30.00,WNW,292,1.6,4.9,47,0.00,,,0.00,VWS V14.01,2013-07-23 19:51:00,
2013-07-23 14:57:00,72.7,51.3,30.00,South,180,2.0,4.3,47,0.00,,,0.00,VWS V14.01,2013-07-23 19:57:00,
2013-07-23 15:02:00,73.2,51.2,30.00,NE,45,4.7,4.9,46,0.00,,,0.00,VWS V14.01,2013-07-23 20:02:00,
2013-07-23 15:07:00,73.2,51.2,30.00,NNW,338,2.7,4.7,46,0.00,,,0.00,VWS V14.01,2013-07-23 20:07:00,
2013-07-23 15:12:00,73.6,51.0,30.00,East,90,1.3,7.8,45,0.00,,,0.00,VWS V14.01,2013-07-23 20:12:00,
2013-07-23 15:17:00,73.6,51.0,30.00,WNW,292,4.0,4.3,45,0.00,,,0.00,VWS V14.01,2013-07-23 20:17:00,
2013-07-23 15:23:00,73.0,50.5,30.00,East,90,1.6,6.3,45,0.00,,,0.00,VWS V14.01,2013-07-23 20:23:00,
2013-07-23 15:29:00,72.3,50.4,30.00,East,90,1.6,3.8,46,0.00,,,0.00,VWS V14.01,2013-07-23 20:29:00,
2013-07-23 15:34:00,73.0,51.6,30.00,NE,45,4.0,5.4,47,0.00,,,0.00,VWS V14.01,2013-07-23 20:34:00,
2013-07-23 15:39:00,73.8,51.7,30.00,ENE,68,6.0,6.0,46,0.00,,,0.00,VWS V14.01,2013-07-23 20:39:00,
2013-07-23 15:44:00,73.8,51.7,30.00,NE,45,3.6,6.0,46,0.00,,,0.00,VWS V14.01,2013-07-23 20:44:00,
2013-07-23 15:50:00,73.6,51.0,30.00,NW,315,2.0,3.4,45,0.00,,,0.00,VWS V14.01,2013-07-23 20:50:00,
2013-07-23 15:55:00,72.9,50.9,30.00,SSE,158,3.1,3.1,46,0.00,,,0.00,VWS V14.01,2013-07-23 20:55:00,
2013-07-23 16:00:00,73.2,51.2,30.00,ENE,68,5.8,6.3,46,0.00,,,0.00,VWS V14.01,2013-07-23 21:00:00,
2013-07-23 16:05:00,73.4,51.4,30.00,ESE,112,2.5,2.9,46,0.00,,,0.00,VWS V14.01,2013-07-23 21:05:00,
2013-07-23 16:11:00,73.9,51.3,30.00,ENE,68,2.7,5.8,45,0.00,,,0.00,VWS V14.01,2013-07-23 21:11:00,
2013-07-23 16:17:00,74.7,51.9,30.00,East,90,3.4,3.4,45,0.00,,,0.00,VWS V14.01,2013-07-23 21:17:00,
2013-07-23 16:22:00,74.5,51.2,30.00,NE,45,3.6,7.6,44,0.00,,,0.00,VWS V14.01,2013-07-23 21:22:00,
2013-07-23 16:27:00,74.3,51.0,30.00,ENE,68,2.7,4.9,44,0.00,,,0.00,VWS V14.01,2013-07-23 21:27:00,
2013-07-23 16:32:00,73.4,50.2,30.00,NNE,22,2.5,2.9,44,0.00,,,0.00,VWS V14.01,2013-07-23 21:32:00,
2013-07-23 16:37:00,73.9,51.3,30.00,NNE,22,2.5,5.8,45,0.00,,,0.00,VWS V14.01,2013-07-23 21:37:00,
2013-07-23 16:42:00,74.5,51.2,30.00,NW,315,2.5,3.6,44,0.00,,,0.00,VWS V14.01,2013-07-23 21:42:00,
2013-07-23 16:47:00,75.0,51.7,30.00,NE,45,3.4,6.5,44,0.00,,,0.00,VWS V14.01,2013-07-23 21:47:00,
2013-07-23 16:53:00,75.2,51.2,30.00,NE,45,3.8,7.2,43,0.00,,,0.00,VWS V14.01,2013-07-23 21:53:00,
2013-07-23 16:58:00,75.4,52.0,30.00,ENE,68,4.0,4.7,44,0.00,,,0.00,VWS V14.01,2013-07-23 21:58:00,
2013-07-23 17:03:00,75.6,52.1,29.97,ENE,68,4.3,4.3,44,0.00,,,0.00,VWS V14.01,2013-07-23 22:03:00,
2013-07-23 17:08:00,75.4,51.3,29.97,NW,315,2.2,3.6,43,0.00,,,0.00,VWS V14.01,2013-07-23 22:08:00,
2013-07-23 17:13:00,75.4,51.3,29.97,WNW,292,2.0,3.6,43,0.00,,,0.00,VWS V14.01,2013-07-23 22:13:00,
2013-07-23 17:19:00,75.6,51.5,29.97,WNW,292,2.5,3.6,43,0.00,,,0.00,VWS V14.01,2013-07-23 22:19:00,
2013-07-23 17:24:00,74.5,51.2,29.97,ENE,68,3.1,8.5,44,0.00,,,0.00,VWS V14.01,2013-07-23 22:24:00,
2013-07-23 17:29:00,73.8,50.5,29.97,ENE,68,2.9,4.9,44,0.00,,,0.00,VWS V14.01,2013-07-23 22:29:00,
2013-07-23 17:34:00,73.9,50.7,29.97,ENE,68,2.5,4.7,44,0.00,,,0.00,VWS V14.01,2013-07-23 22:34:00,
2013-07-23 17:39:00,74.5,51.2,29.97,NE,45,1.6,1.6,44,0.00,,,0.00,VWS V14.01,2013-07-23 22:39:00,
2013-07-23 17:44:00,74.3,51.0,29.97,ESE,112,3.4,3.6,44,0.00,,,0.00,VWS V14.01,2013-07-23 22:44:00,
2013-07-23 17:50:00,74.5,51.2,30.00,WNW,292,2.5,3.8,44,0.00,,,0.00,VWS V14.01,2013-07-23 22:50:00,
2013-07-23 17:55:00,74.7,51.3,30.00,East,90,6.0,7.6,44,0.00,,,0.00,VWS V14.01,2013-07-23 22:55:00,
2013-07-23 18:00:00,74.3,51.0,30.00,WNW,292,1.6,2.0,44,0.00,,,0.00,VWS V14.01,2013-07-23 23:00:00,
2013-07-23 18:05:00,74.5,51.2,30.03,North,0,2.2,2.5,44,0.00,,,0.00,VWS V14.01,2013-07-23 23:05:00,
2013-07-23 18:10:00,74.3,51.0,30.03,NE,45,1.3,2.9,44,0.00,,,0.00,VWS V14.01,2013-07-23 23:10:00,
2013-07-23 18:15:00,74.5,51.2,30.03,NE,45,2.9,3.4,44,0.00,,,0.00,VWS V14.01,2013-07-23 23:15:00,
2013-07-23 18:20:00,74.5,51.2,29.97,NE,45,3.1,3.1,44,0.00,,,0.00,VWS V14.01,2013-07-23 23:20:00,
2013-07-23 18:25:00,74.3,51.0,29.97,ENE,68,4.7,4.7,44,0.00,,,0.00,VWS V14.01,2013-07-23 23:25:00,
2013-07-23 18:30:00,74.1,50.8,29.97,NE,45,1.6,4.5,44,0.00,,,0.00,VWS V14.01,2013-07-23 23:30:00,
2013-07-23 18:36:00,73.9,50.7,30.03,ENE,68,2.5,2.7,44,0.00,,,0.00,VWS V14.01,2013-07-23 23:36:00,
2013-07-23 18:41:00,73.9,50.7,30.03,NNE,22,1.3,2.0,44,0.00,,,0.00,VWS V14.01,2013-07-23 23:41:00,
2013-07-23 18:46:00,73.2,50.6,30.03,ENE,68,0.9,1.6,45,0.00,,,0.00,VWS V14.01,2013-07-23 23:46:00,
2013-07-23 18:52:00,72.3,49.8,30.00,NE,45,2.0,4.0,45,0.05,,,0.05,VWS V14.01,2013-07-23 23:52:00,
2013-07-23 18:57:00,71.8,49.3,30.00,ENE,68,0.9,4.3,45,0.05,,,0.05,VWS V14.01,2013-07-23 23:57:00,
2013-07-23 19:02:00,71.4,49.6,29.97,ENE,68,2.7,3.1,46,0.05,,,0.05,VWS V14.01,2013-07-24 00:02:00,
2013-07-23 19:07:00,71.1,49.8,29.97,ENE,68,0.9,3.8,47,0.05,,,0.05,VWS V14.01,2013-07-24 00:07:00,
2013-07-23 19:12:00,70.9,49.1,29.97,NE,45,1.6,4.3,46,0.05,,,0.05,VWS V14.01,2013-07-24 00:12:00,
2013-07-23 19:17:00,70.7,49.5,30.00,ENE,68,0.0,3.6,47,0.05,,,0.05,VWS V14.01,2013-07-24 00:17:00,
2013-07-23 19:23:00,70.3,49.7,30.00,NE,45,0.0,0.0,48,0.05,,,0.05,VWS V14.01,2013-07-24 00:23:00,
2013-07-23 19:28:00,70.2,49.6,30.00,ESE,112,0.0,2.5,48,0.05,,,0.05,VWS V14.01,2013-07-24 00:28:00,
2013-07-23 19:34:00,70.0,50.0,30.00,ESE,112,0.0,2.9,49,0.05,,,0.05,VWS V14.01,2013-07-24 00:34:00,
2013-07-23 19:39:00,69.6,49.6,30.00,ENE,68,0.0,0.0,49,0.05,,,0.05,VWS V14.01,2013-07-24 00:39:00,
2013-07-23 19:44:00,69.4,50.0,30.00,NE,45,0.0,0.0,50,0.05,,,0.05,VWS V14.01,2013-07-24 00:44:00,
2013-07-23 19:50:00,69.1,49.7,30.00,ENE,68,3.4,3.4,50,0.00,,,0.05,VWS V14.01,2013-07-24 00:50:00,
2013-07-23 19:56:00,68.7,49.3,30.00,ENE,68,0.0,1.3,50,0.00,,,0.05,VWS V14.01,2013-07-24 00:56:00,
2013-07-23 20:02:00,68.5,49.7,30.00,ENE,68,0.0,1.1,51,0.00,,,0.05,VWS V14.01,2013-07-24 01:02:00,
2013-07-23 20:07:00,68.2,49.9,30.03,NE,45,1.6,1.6,52,0.00,,,0.05,VWS V14.01,2013-07-24 01:07:00,
2013-07-23 20:12:00,67.8,49.6,30.03,SE,135,0.0,3.6,52,0.00,,,0.05,VWS V14.01,2013-07-24 01:12:00,
2013-07-23 20:17:00,67.6,49.9,30.03,NE,45,0.0,0.0,53,0.00,,,0.05,VWS V14.01,2013-07-24 01:17:00,
2013-07-23 20:22:00,67.3,49.6,30.03,ENE,68,0.0,1.1,53,0.00,,,0.05,VWS V14.01,2013-07-24 01:22:00,
2013-07-23 20:27:00,66.9,49.8,30.03,ENE,68,0.0,0.0,54,0.00,,,0.05,VWS V14.01,2013-07-24 01:27:00,
2013-07-23 20:32:00,66.6,49.4,30.03,NNE,22,0.0,2.7,54,0.00,,,0.05,VWS V14.01,2013-07-24 01:32:00,
2013-07-23 20:37:00,66.2,49.6,30.03,ENE,68,0.0,1.6,55,0.00,,,0.05,VWS V14.01,2013-07-24 01:37:00,
2013-07-23 20:42:00,66.0,49.9,30.03,ENE,68,0.0,1.1,56,0.00,,,0.05,VWS V14.01,2013-07-24 01:42:00,
2013-07-23 20:48:00,65.7,50.0,30.03,ENE,68,1.3,2.7,57,0.00,,,0.05,VWS V14.01,2013-07-24 01:48:00,
2013-07-23 20:53:00,65.5,49.9,30.03,NNE,22,1.3,3.4,57,0.00,,,0.05,VWS V14.01,2013-07-24 01:53:00,
2013-07-23 20:58:00,65.5,50.3,30.03,NNE,22,1.1,2.5,58,0.00,,,0.05,VWS V14.01,2013-07-24 01:58:00,
2013-07-23 21:03:00,65.3,50.2,30.00,ENE,68,0.9,4.3,58,0.00,,,0.05,VWS V14.01,2013-07-24 02:03:00,
2013-07-23 21:09:00,65.1,50.0,30.00,NE,45,2.5,2.5,58,0.00,,,0.05,VWS V14.01,2013-07-24 02:09:00,
2013-07-23 21:14:00,64.8,49.7,30.00,ENE,68,0.9,0.9,58,0.00,,,0.05,VWS V14.01,2013-07-24 02:14:00,
2013-07-23 21:19:00,64.4,49.8,30.03,East,90,0.0,0.0,59,0.00,,,0.05,VWS V14.01,2013-07-24 02:19:00,
2013-07-23 21:24:00,64.0,49.4,30.03,ENE,68,1.6,1.6,59,0.00,,,0.05,VWS V14.01,2013-07-24 02:24:00,
2013-07-23 21:30:00,63.9,49.7,30.03,NE,45,1.3,3.1,60,0.00,,,0.05,VWS V14.01,2013-07-24 02:30:00,
2013-07-23 21:35:00,63.9,49.3,30.03,ENE,68,2.5,2.5,59,0.00,,,0.05,VWS V14.01,2013-07-24 02:35:00,
2013-07-23 21:40:00,63.9,49.3,30.03,ENE,68,1.1,1.6,59,0.00,,,0.05,VWS V14.01,2013-07-24 02:40:00,
2013-07-23 21:45:00,63.7,48.6,30.03,East,90,1.3,1.3,58,0.00,,,0.05,VWS V14.01,2013-07-24 02:45:00,
2013-07-23 21:51:00,63.3,48.3,30.03,ENE,68,0.0,2.9,58,0.00,,,0.05,VWS V14.01,2013-07-24 02:51:00,
2013-07-23 21:56:00,63.1,48.6,30.03,ENE,68,0.0,0.0,59,0.00,,,0.05,VWS V14.01,2013-07-24 02:56:00,
2013-07-23 22:01:00,62.6,48.1,30.03,NE,45,1.1,2.2,59,0.00,,,0.05,VWS V14.01,2013-07-24 03:01:00,
2013-07-23 22:06:00,62.4,47.9,30.03,ENE,68,0.9,1.1,59,0.00,,,0.05,VWS V14.01,2013-07-24 03:06:00,
2013-07-23 22:11:00,62.2,47.8,30.03,ESE,112,1.3,1.3,59,0.00,,,0.05,VWS V14.01,2013-07-24 03:11:00,
2013-07-23 22:17:00,61.9,47.9,30.06,NE,45,0.0,0.0,60,0.00,,,0.05,VWS V14.01,2013-07-24 03:17:00,
2013-07-23 22:22:00,61.5,47.5,30.06,NE,45,0.0,0.0,60,0.00,,,0.05,VWS V14.01,2013-07-24 03:22:00,
2013-07-23 22:28:00,61.0,47.5,30.06,ENE,68,0.0,2.2,61,0.00,,,0.05,VWS V14.01,2013-07-24 03:28:00,
2013-07-23 22:33:00,60.8,47.3,30.06,ENE,68,0.0,0.0,61,0.00,,,0.05,VWS V14.01,2013-07-24 03:33:00,
2013-07-23 22:38:00,60.6,47.5,30.06,ENE,68,0.0,0.0,62,0.00,,,0.05,VWS V14.01,2013-07-24 03:38:00,
2013-07-23 22:43:00,60.4,47.8,30.06,ENE,68,0.0,1.3,63,0.00,,,0.05,VWS V14.01,2013-07-24 03:43:00,
2013-07-23 22:48:00,60.3,47.6,30.06,ENE,68,0.0,0.0,63,0.00,,,0.05,VWS V14.01,2013-07-24 03:48:00,
2013-07-23 22:54:00,60.1,47.9,30.06,ENE,68,0.0,0.0,64,0.00,,,0.05,VWS V14.01,2013-07-24 03:54:00,
2013-07-23 22:59:00,60.1,48.7,30.06,ENE,68,0.0,0.0,66,0.00,,,0.05,VWS V14.01,2013-07-24 03:59:00,
2013-07-23 23:01:00,60.1,48.7,30.06,ENE,68,0.0,0.0,66,0.00,,,0.05,VWS V14.01,2013-07-24 04:01:00,
2013-07-23 23:02:00,59.9,48.5,30.06,ENE,68,0.0,0.0,66,0.00,,,0.05,VWS V14.01,2013-07-24 04:02:00,
2013-07-23 23:03:00,59.9,48.5,30.06,ENE,68,0.0,0.0,66,0.00,,,0.05,VWS V14.01,2013-07-24 04:03:00,
2013-07-23 23:08:00,59.5,48.2,30.06,ENE,68,0.0,0.0,66,0.00,,,0.05,VWS V14.01,2013-07-24 04:08:00,
2013-07-23 23:13:00,59.4,48.4,30.06,ENE,68,0.0,0.0,67,0.00,,,0.05,VWS V14.01,2013-07-24 04:13:00,
2013-07-23 23:19:00,59.0,48.1,30.06,ENE,68,0.0,0.0,67,0.00,,,0.05,VWS V14.01,2013-07-24 04:19:00,
2013-07-23 23:24:00,58.8,48.3,30.06,ENE,68,0.0,0.0,68,0.00,,,0.05,VWS V14.01,2013-07-24 04:24:00,
2013-07-23 23:29:00,58.6,48.1,30.06,ENE,68,0.0,0.0,68,0.00,,,0.05,VWS V14.01,2013-07-24 04:29:00,
2013-07-23 23:34:00,58.5,48.3,30.06,ENE,68,0.0,0.0,69,0.00,,,0.05,VWS V14.01,2013-07-24 04:34:00,
2013-07-23 23:39:00,58.3,48.5,30.06,ENE,68,0.0,0.0,70,0.00,,,0.05,VWS V14.01,2013-07-24 04:39:00,
2013-07-23 23:44:00,58.1,48.8,30.06,ENE,68,0.0,0.0,71,0.00,,,0.05,VWS V14.01,2013-07-24 04:44:00,
2013-07-23 23:49:00,57.9,49.0,30.06,ENE,68,0.0,0.0,72,0.00,,,0.05,VWS V14.01,2013-07-24 04:49:00,
2013-07-23 23:54:00,57.7,48.8,30.06,ENE,68,0.0,0.0,72,0.00,,,0.05,VWS V14.01,2013-07-24 04:54:00,
2013-07-23 23:59:00,57.7,48.8,30.06,ENE,68,0.0,0.0,72,0.00,,,0.00,VWS V14.01,2013-07-24 04:59:00,